Weather History for LHBP - November, 2011

Change the Weather History Date:

Thursday, November 10, 2011

  Actual Average Record
Temperature  
Mean Temperature 39 °F -  
Max Temperature 48 °F 42 °F 62 °F (1997)
Min Temperature 30 °F 30 °F 28 °F (1996)
Degree Days  
Heating Degree Days 26    
Moisture  
Dew Point 31 °F    
Average Humidity 76    
Maximum Humidity 100    
Minimum Humidity 50    
Precipitation  
Precipitation 0.00 in - - ()
Sea Level Pressure  
Sea Level Pressure 30.20 in    
Wind  
Wind Speed 4 mph ()    
Max Wind Speed 12 mph    
Max Gust Speed -    
Visibility 2.6 miles    
Events      
Averages and records for this station are not official NWS values.
T = Trace of Precipitation, MM = Missing Value Source: Averaged Metar Reports

Daily Weather History Graph

Daily Weather History Graph

Search for Another Location

Airport or City:

Trip Planner

Search our weather history database for the weather conditions in past years. The results will help you decide how hot, cold, wet, or windy it might be!

Date:

Astronomy

Nov. 10, 2011 Rise Set
Actual Time 6:39 AM CET 4:13 PM CET
Civil Twilight 6:06 AM CET 4:46 PM CET
Nautical Twilight 5:29 AM CET 5:23 PM CET
Astronomical Twilight 4:53 AM CET 5:59 PM CET
Moon 3:46 PM CET (11/10) 6:16 AM CET (11/10)
Length of Visible Light 10h 40m
Length of Day
9h 34m
Full, 100% of the Moon is Illuminated
Nov 10
Full
Nov 10
Full
Nov 18
Last Quarter
Nov 25
New
Dec 2
First Quarter

Hourly Weather History & Observations

Time (CET) Temp. Windchill Dew Point Humidity Pressure Visibility Wind Dir Wind Speed Gust Speed Precip Events Conditions
12:00 AM 33.8 °F - 32.0 °F 93% 30.18 in 1.9 mi Variable 2.3 mph - N/A   Mist
12:30 AM 33.8 °F - 32.0 °F 93% 30.18 in 1.9 mi Variable 2.3 mph - N/A   Mist
1:00 AM 33.8 °F - 32.0 °F 93% 30.18 in 1.9 mi Variable 2.3 mph - N/A   Mist
1:30 AM 32.0 °F 28.7 °F 32.0 °F 100% 30.18 in 1.9 mi Variable 3.5 mph - N/A   Mist
2:00 AM 32.0 °F 28.7 °F 30.2 °F 93% 30.18 in 1.4 mi Variable 3.5 mph - N/A   Mist
2:30 AM 32.0 °F - 28.4 °F 87% 30.15 in 1.4 mi Variable 2.3 mph - N/A   Mist
3:00 AM 32.0 °F 28.7 °F 30.2 °F 93% 30.15 in 1.4 mi Variable 3.5 mph - N/A   Mist
3:30 AM 32.0 °F 27.5 °F 32.0 °F 100% 30.15 in 1.4 mi WNW 4.6 mph - N/A   Mist
4:00 AM 32.0 °F 27.5 °F 30.2 °F 93% 30.15 in 1.4 mi NW 4.6 mph - N/A   Mist
4:30 AM 30.2 °F 26.7 °F 28.4 °F 93% 30.15 in 1.4 mi Variable 3.5 mph - N/A   Mist
5:00 AM 33.8 °F 29.6 °F 33.8 °F 100% 30.15 in 1.2 mi SE 4.6 mph - N/A   Mist
5:30 AM 33.8 °F - 32.0 °F 93% 30.15 in 1.1 mi Variable 1.2 mph - N/A   Mist
6:00 AM 32.0 °F - 32.0 °F 100% 30.15 in 1.1 mi Variable 1.2 mph - N/A   Mist
6:30 AM 30.2 °F 26.7 °F 30.2 °F 100% 30.15 in 1.0 mi Variable 3.5 mph - N/A   Partly Cloudy
7:00 AM 32.0 °F 27.5 °F 30.2 °F 93% 30.18 in 1.0 mi WNW 4.6 mph - N/A   Mist
7:30 AM 32.0 °F - 30.2 °F 93% 30.18 in 1.0 mi Variable 2.3 mph - N/A   Mist
8:00 AM 33.8 °F - 30.2 °F 87% 30.18 in 1.2 mi Variable 2.3 mph - N/A   Mist
8:30 AM 41.0 °F 39.0 °F 39.2 °F 93% 30.18 in 1.2 mi Variable 3.5 mph - N/A   Mist
9:00 AM 42.8 °F - 41.0 °F 93% 30.18 in 1.2 mi Variable 1.2 mph - N/A   Mist
9:30 AM 46.4 °F 41.9 °F 41.0 °F 81% 30.18 in 1.9 mi East 9.2 mph - N/A   Mist
10:00 AM 46.4 °F 41.1 °F 39.2 °F 76% 30.18 in 2.5 mi East 11.5 mph - N/A   Mist
10:30 AM 48.2 °F - 37.4 °F 66% 30.18 in 3.1 mi East 10.4 mph - N/A   Mist
11:00 AM 48.2 °F - 37.4 °F 66% 30.21 in 3.7 mi East 10.4 mph - N/A   Mostly Cloudy
11:30 AM 44.6 °F 38.8 °F 35.6 °F 71% 30.21 in 3.7 mi ESE 11.5 mph - N/A   Mostly Cloudy
12:00 PM 44.6 °F 40.2 °F 35.6 °F 71% 30.18 in 5.0 mi East 8.1 mph - N/A   Mostly Cloudy
12:30 PM 44.6 °F 39.2 °F 33.8 °F 66% 30.18 in 6.2 mi East 10.4 mph - N/A   Mostly Cloudy
1:00 PM 44.6 °F 40.7 °F 33.8 °F 66% 30.21 in 6.2 mi ENE 6.9 mph - N/A   Mostly Cloudy
1:30 PM 46.4 °F 43.5 °F 32.0 °F 57% 30.18 in 6.2 mi ENE 5.8 mph - N/A   Mostly Cloudy
2:00 PM 46.4 °F 44.3 °F 32.0 °F 57% 30.18 in 6.2 mi East 4.6 mph - N/A   Mostly Cloudy
2:30 PM 46.4 °F 43.5 °F 30.2 °F 53% 30.18 in 6.2 mi ENE 5.8 mph - N/A   Scattered Clouds
3:00 PM 48.2 °F - 30.2 °F 50% 30.18 in - Variable 1.2 mph - N/A   Clear
3:30 PM 46.4 °F - 32.0 °F 57% 30.18 in - Variable 2.3 mph - N/A   Clear
4:00 PM 44.6 °F 41.4 °F 28.4 °F 53% 30.18 in - ENE 5.8 mph - N/A   Clear
4:30 PM 42.8 °F - 26.6 °F 53% 30.21 in - Variable 1.2 mph - N/A   Clear
5:00 PM 42.8 °F 39.3 °F 26.6 °F 53% 30.21 in - ENE 5.8 mph - N/A   Clear
5:30 PM 41.0 °F 38.0 °F 26.6 °F 57% 30.21 in - ENE 4.6 mph - N/A   Clear
6:00 PM 37.4 °F 32.8 °F 26.6 °F 65% 30.21 in - ENE 5.8 mph - N/A   Clear
6:30 PM 41.0 °F 35.8 °F 28.4 °F 61% 30.24 in - ENE 8.1 mph - N/A   Clear
7:00 PM 41.0 °F 35.2 °F 26.6 °F 57% 30.24 in - ENE 9.2 mph - N/A   Clear
7:30 PM 39.2 °F 32.5 °F 26.6 °F 61% 30.24 in - ENE 10.4 mph - N/A   Clear
8:00 PM 37.4 °F 31.4 °F 26.6 °F 65% 30.24 in - East 8.1 mph - N/A   Clear
8:30 PM 37.4 °F 33.8 °F 26.6 °F 65% 30.27 in - ENE 4.6 mph - N/A   Clear
9:00 PM 33.8 °F 28.6 °F 24.8 °F 70% 30.27 in - East 5.8 mph - N/A   Clear
9:30 PM 32.0 °F 26.4 °F 24.8 °F 75% 30.27 in - East 5.8 mph - N/A   Clear
10:00 PM 33.8 °F 30.8 °F 24.8 °F 70% 30.27 in - Variable 3.5 mph - N/A   Clear
10:30 PM 30.2 °F 26.7 °F 23.0 °F 75% 30.30 in - Variable 3.5 mph - N/A   Clear
11:00 PM 32.0 °F 26.4 °F 23.0 °F 69% 30.30 in - NNE 5.8 mph - N/A   Clear
11:30 PM 32.0 °F 28.7 °F 24.8 °F 75% 30.30 in - Variable 3.5 mph - N/A   Clear